Weather History for KJMS - October, 2012

Change the Weather History Date:

Thursday, October 25, 2012

  Actual Average Record
Temperature  
Mean Temperature 34 °F 40 °F  
Max Temperature 37 °F 51 °F 82 °F (1989)
Min Temperature 31 °F 29 °F 5 °F (1919)
Degree Days  
Heating Degree Days 31 25  
Month to date heating degree days 527 489  
Since 1 July heating degree days 791 807  
Cooling Degree Days 0 0  
Month to date cooling degree days 0 0  
Year to date cooling degree days 575 445  
Moisture  
Dew Point 23 °F    
Average Humidity 65    
Maximum Humidity 78    
Minimum Humidity 52    
Precipitation  
Precipitation 0.00 in 0.05 in 0.54 in (2010)
Month to date precipitation 1.30 1.32  
Year to date precipitation 12.31 17.51  
Sea Level Pressure  
Sea Level Pressure 30.09 in    
Wind  
Wind Speed 22 mph (NW)    
Max Wind Speed 32 mph    
Max Gust Speed 40 mph    
Visibility 10 miles    
Events      
T = Trace of Precipitation, MM = Missing Value Source: NWS Daily Summary

Daily Weather History Graph

Daily Weather History Graph

Search for Another Location

Airport or City:

Trip Planner

Search our weather history database for the weather conditions in past years. The results will help you decide how hot, cold, wet, or windy it might be!

Date:

Astronomy

Oct. 25, 2012 Rise Set
Actual Time 8:07 AM CDT 6:28 PM CDT
Civil Twilight 7:36 AM CDT 7:00 PM CDT
Nautical Twilight 7:00 AM CDT 7:35 PM CDT
Astronomical Twilight 6:25 AM CDT 8:10 PM CDT
Moon 4:27 PM CDT (10/25) 3:52 AM CDT (10/25)
Length of Visible Light 11h 23m
Length of Day
10h 21m
Waxing Gibbous, 84% of the Moon is Illuminated
Oct 25
Waxing Gibbous
Oct 29
Full
Nov 6
Last Quarter
Nov 13
New
Nov 20
First Quarter

Hourly Weather History & Observations

Time (CDT) Temp. Windchill Dew Point Humidity Pressure Visibility Wind Dir Wind Speed Gust Speed Precip Events Conditions
12:56 AM 32.0 °F 22.5 °F 26.1 °F 79% 30.05 in 10.0 mi WNW 12.7 mph - N/A   Clear
1:56 AM 33.1 °F 23.0 °F 26.1 °F 75% 30.04 in 10.0 mi NW 15.0 mph - N/A   Clear
2:56 AM 32.0 °F 20.8 °F 25.0 °F 75% 30.03 in 10.0 mi NNW 17.3 mph - N/A   Mostly Cloudy
3:56 AM 32.0 °F 23.0 °F 25.0 °F 75% 30.04 in 10.0 mi NW 11.5 mph 23.0 mph N/A   Overcast
4:56 AM 32.0 °F 22.5 °F 25.0 °F 75% 30.06 in 10.0 mi NW 12.7 mph - N/A   Overcast
5:56 AM 33.1 °F 23.4 °F 24.1 °F 70% 30.08 in 10.0 mi NW 13.8 mph - N/A   Overcast
6:18 AM 32.0 °F 21.6 °F 24.8 °F 75% 30.03 in 10.0 mi NW 15.0 mph - N/A   Mostly Cloudy
7:19 AM 32.0 °F 20.1 °F 24.8 °F 75% 30.03 in 10.0 mi NW 19.6 mph 26.5 mph N/A   Overcast
8:56 AM 33.1 °F 20.6 °F 24.1 °F 70% 30.07 in 10.0 mi NW 23.0 mph 31.1 mph N/A   Overcast
9:56 AM 34.0 °F 21.3 °F 23.0 °F 64% 30.07 in 10.0 mi NW 25.3 mph 32.2 mph N/A   Overcast
10:27 AM 33.8 °F 21.3 °F 23.0 °F 65% 30.02 in 10.0 mi NW 24.2 mph 33.4 mph N/A   Overcast
10:56 AM 34.0 °F 20.8 °F 23.0 °F 64% 30.08 in 10.0 mi NW 27.6 mph 39.1 mph N/A   Overcast
11:56 AM 35.1 °F 22.5 °F 23.0 °F 61% 30.08 in 10.0 mi NW 26.5 mph 35.7 mph N/A   Overcast
12:56 PM 36.0 °F 22.8 °F 21.9 °F 57% 30.07 in 10.0 mi NW 31.1 mph 39.1 mph N/A   Overcast
1:56 PM 37.0 °F 24.9 °F 21.9 °F 54% 30.07 in 10.0 mi NW 27.6 mph 39.1 mph N/A   Overcast
2:56 PM 37.0 °F 25.1 °F 21.9 °F 54% 30.07 in 10.0 mi NW 26.5 mph 35.7 mph N/A   Overcast
3:56 PM 36.0 °F 23.2 °F 21.0 °F 55% 30.09 in 10.0 mi NW 28.8 mph 40.3 mph N/A   Overcast
4:56 PM 36.0 °F 25.0 °F 23.0 °F 59% 30.12 in 10.0 mi NW 20.7 mph 29.9 mph N/A   Overcast
5:56 PM 35.1 °F 24.1 °F 24.1 °F 64% 30.14 in 10.0 mi NW 19.6 mph 31.1 mph N/A   Overcast
6:56 PM 35.1 °F 24.1 °F 21.0 °F 57% 30.16 in 10.0 mi NW 19.6 mph 31.1 mph N/A   Overcast
8:56 PM 35.1 °F 23.3 °F 21.9 °F 59% 30.20 in 10.0 mi WNW 23.0 mph 28.8 mph N/A   Overcast
9:56 PM 34.0 °F 22.1 °F 21.0 °F 59% 30.21 in 10.0 mi WNW 21.9 mph 31.1 mph N/A   Overcast
11:56 PM 34.0 °F 21.5 °F 21.0 °F 59% 30.23 in 10.0 mi WNW 24.2 mph 36.8 mph N/A   Overcast